Regional Weather Roundup
Issued by NWS

Home | Current Version | Previous Version | Text Only | Print | Product List | Glossary Off
Versions: 1 2 3 4 5 6 7 8 9 10 11 12 13 14 15 16 17 18 19 20 21 22 23 24 25 26 27 28 29 30 31 32 33 34 35 36 37 38 39 40 41 42 43 44 45 46 47 48 49 50

000
ASUS43 KMPX 221001
RWRMN
WEATHER ROUNDUP FOR MINNESOTA
NATIONAL WEATHER SERVICE TWIN CITIES/CHANHASSEN MN
500 AM CDT TUE JUL 22 2014


NOTE: "FAIR" INDICATES FEW OR NO CLOUDS BELOW 12,000 FEET WITH NO
SIGNIFICANT WEATHER AND/OR OBSTRUCTIONS TO VISIBILITY. N/A MEANS
CURRENT SKY AND/OR WEATHER CONDITIONS ARE NOT AVAILABLE.

MNZ060>063-068>070-221100-
   Twin Cities Metro

CITY           SKY/WX    TMP DP  RH WIND       PRES   REMARKS
TWIN CITIES    MOCLDY    81  76  84 SW9       29.80S
ST PAUL          N/A     77  75  93 S3        29.80R
CRYSTAL        MOCLDY    79  72  79 NW14G20   29.80R
BLAINE         CLOUDY    81  73  78 W12G18    29.81R
LAKEVILLE      PTCLDY    79  73  83 SW3       29.82R
EDEN PRAIRIE   PTCLDY    79  76  90 W5        29.80R
SOUTH ST PAUL  PTCLDY    80  75  86 SW6       29.79S
LAKE ELMO      MOCLDY    77  75  94 S8        29.81S
$$
MNZ001>005-007-008-013>017-022>024-027-028-221100-
   Northwest Minnesota

CITY           SKY/WX    TMP DP  RH WIND       PRES   REMARKS
BEMIDJI        CLOUDY    63  62  96 W15       29.86R
HALLOCK        CLOUDY    63  61  94 NW10      29.94R
ROSEAU         CLOUDY    61  55  82 NW8       29.89R
WARROAD        CLOUDY    61  55  82 NW6       29.86R
THIEF RVR FALL CLOUDY    63  61  94 NW13      29.92R
FOSSTON        CLOUDY    63  61  94 NW15G22   29.91R
DETROIT LAKES  CLOUDY    64  63  94 NW12G18   29.94R
MOORHEAD       CLOUDY    66  66 100 NW14      29.94R
PARK RAPIDS    MOCLDY    65  63  93 NW13      29.87R
$$
MNZ006-009>011-018-025>026-221100-
   North Central Minnesota

CITY           SKY/WX    TMP DP  RH WIND       PRES   REMARKS
BAUDETTE       CLOUDY    65  63  93 NW14      29.82R
FLAG ISLAND    CLOUDY    64  57  77 N18       29.84R
INTL FALLS     LGT RAIN  65  64  97 NW16      29.73R
WASKISH        CLOUDY    64  64 100 NW12      29.82R
BIG FORK         N/A     66  64  94 W7G16     29.76
LONGVILLE      MOCLDY    66  64  94 W8G17     29.82R
GRAND RAPIDS   CLOUDY    66  63  88 W13G24    29.77R
ORR            DRIZZLE   64  63  94 SW6       29.67S
COOK           CLOUDY   N/A N/A N/A W8        29.71R
$$
MNZ012-019>021-037-221100-
   Northeast Minnesota

CITY           SKY/WX    TMP DP  RH WIND       PRES   REMARKS
DULUTH         CLOUDY    69  64  84 W21       29.72S
ELY            CLOUDY    64  63  94 S6        29.65F
HIBBING        LGT RAIN  66  64  93 W7        29.72R
DULUTH HARBOR  CLOUDY    70  66  88 SW14      29.70R
TWO HARBORS    CLOUDY    63  57  82 CALM      29.68F
SILVER BAY     CLOUDY    63  63 100 CALM      29.68R
GRAND MARAIS     N/A     59  58  96 CALM      29.71R
G MARAIS ARPRT DRZL/FOG  59  55  88 SE3       29.76R VSB<1/4
$$
MNZ029>031-032-039>041-046>048-054>057-064-221100-
   West Central Minnesota

CITY           SKY/WX    TMP DP  RH WIND       PRES   REMARKS
FERGUS FALLS   CLOUDY    66  64  94 NW9       29.93R
WHEATON        PTCLDY    64  63  94 NW14      29.97R
MORRIS         PTCLDY    66  64  94 NW14      29.92R
ALEXANDRIA     CLOUDY    67  64  90 NW17      29.92R
ELBOW LAKE     CLOUDY    65  64  97 NW14G20   29.93R
WADENA         MOCLDY    64  63  94 NW13G20   29.89R
GLENWOOD       PTCLDY    66  64  94 NW20G26   29.91R
APPLETON       MOCLDY    68  64  88 NW9       29.92R
BENSON         PTCLDY    66  64  94 N10       29.92R
MADISON        CLOUDY    70  66  88 W8        29.96R
WILLMAR        FAIR      68  63  83 NW10      29.90R
$$
MNZ033>034-036-042>043-049>051-058-059-221100-
   Central Minnesota

CITY           SKY/WX    TMP DP  RH WIND       PRES   REMARKS
ST CLOUD       CLEAR     71  63  75 W10G21    29.82R
SAUK CENTRE    FAIR      66  64  90 NW17G23   29.88R
PAYNESVILLE    RAIN      64  62  94 W9        29.88R
AITKIN         PTCLDY    70  63  78 W5        29.76S
PINE RIVER     MOCLDY    66  66 100 NW9       29.86R
BRAINERD       MOCLDY    67  64  90 W12       29.82R
STAPLES        MOCLDY    64  63  94 NW16      29.86R
LONG PRAIRIE   FAIR      64  63  94 W13G20    29.88R
LITTLE FALLS   CLEAR     68  61  77 W12       29.84R
LITCHFIELD     CLEAR     72  66  83 W5        29.88R
BUFFALO        CLEAR     73  64  73 W6        29.85R
MAPLE LAKE     CLEAR     72  65  79 W5        29.85R
$$
MNZ037-044-045-052-053-221100-
   East Central Minnesota

CITY           SKY/WX    TMP DP  RH WIND       PRES   REMARKS
PRINCETON      CLEAR     72  64  78 W6        29.82R
MORA           PTCLDY    64  64 100 W7G17     29.81R
CAMBRIDGE      PTCLDY    73  63  68 W7        29.79R
RUSH CITY      PTCLDY    73  66  79 SW7       29.79R
MOOSE LAKE     MOCLDY    68  64  88 W9        29.75R
HINCKLEY       FAIR      70  68  94 W10       29.78R
CLOQUET        MOCLDY    68  63  83 W14G20    29.75R
$$
MNZ071>073-080-081-089-090-097-098-221100-
   Southwest Minnesota

CITY           SKY/WX    TMP DP  RH WIND       PRES   REMARKS
MONTEVIDEO     MOCLDY    68  64  88 N10       29.93R
GRANITE FALLS  PTCLDY    68  65  90 NW9       29.92R
CANBY          CLOUDY    68  63  85 NW15      29.98R
MARSHALL       PTCLDY    70  64  83 NE12      29.88F
REDWOOD FALLS  LGT RAIN  71  65  81 NW14G21   29.91R
OLIVIA         PTCLDY    70  64  83 W9        29.92R
PIPESTONE      CLEAR     70  63  78 NE7       29.91F
WINDOM         PTCLDY    75  72  88 NW15G22   29.91R FOG
WORTHINGTON    CLEAR     75  68  78 NW12      29.94R
TRACY          PTCLDY    70  65  84 N8        29.92R
SLAYTON        CLEAR     69  64  86 CALM      29.92S
$$
MNZ065>067-074>077-082>085-091>093-221100-
   South Central Minnesota

CITY           SKY/WX    TMP DP  RH WIND       PRES   REMARKS
MANKATO        PTCLDY    79  72  78 SW7       29.83S
NEW ULM        CLEAR     75  75 100 NW17      29.87R
ST JAMES       CLEAR     75  73  94 SW6       29.87R FOG
FAIRMONT       PTCLDY    75  72  88 W5        29.87R
GLENCOE        CLOUDY    76  69  77 NW13      29.85R
FARIBAULT      MOCLDY    82  73  74 S5        29.84R
OWATONNA       PTCLDY    77  73  88 S5        29.85R FOG
WASECA         CLEAR     77  70  78 SW6       29.86S HAZE
ALBERT LEA     CLEAR     79  75  89 S8        29.86R FOG
$$
MNZ078>079-086>088-094>096-221100-
   Southeast Minnesota

CITY           SKY/WX    TMP DP  RH WIND       PRES   REMARKS
ROCHESTER      PTCLDY    76  73  91 S13G22    29.88S
RED WING       CLOUDY    79  73  83 CALM      29.81S
STANTON        CLOUDY    78  74  88 SW6       29.81R
DODGE CENTER   MOCLDY    77  73  88 S12G20    29.86S FOG
WINONA         PTCLDY    77  70  78 S5        29.85F
AUSTIN         CLEAR     75  73  94 S9        29.87S FOG
PRESTON        PTCLDY    74  74  99 S12G17    29.89S
$$
ABBREVIATIONS USED IN REMARKS
   TC - TEMPERATURES IN CELSIUS
  WCI - WIND CHILL INDEX
   HX - HEAT INDEX
  VSB - VISIBILITY
$$


USA.gov is the U.S. government's official web portal to all federal, state and local government web resources and services.